User: anonymous   Login
Location: Unspecified
(0.0000°N, 0.0000°E)
Time: 11:39:30
(UTC+00:00)
Language:

GOSAT - Orbit

View from above orbital plane
View from above orbital plane
View from above satellite
View from above satellite

Ground track
Ground track

The orbit data is extracted from the following two-line orbital elements,

1 33492U 09002A   15108.11056560 -.00000094  00000-0 -81496-5 0  9999
2 33492 098.0669 217.8915 0001149 093.8461 266.2895 14.67548036333809
Epoch (UTC): 18 April 2015 02:39:12
Eccentricity: 0.0001149
inclination: 98.0669°
perigee height: 668 km
apogee height: 670 km
right ascension of ascending node: 217.8915°
argument of perigee: 93.8461°
revolutions per day: 14.67548036
mean anomaly at epoch: 266.2895°
orbit number at epoch: 33380

The dashed part of the orbit path shows where the satellite is in the earth's shadow,  

DLR